[Iaude] MPEC P19: 2024 OH2 [a=2.60,e=0.53,i=5.4,H=23.3]
    mpec at cfa.harvard.edu 
    mpec at cfa.harvard.edu
       
    Thu Aug  1 14:25:01 EDT 2024
    
    
  
M.P.E.C. 2024-P19                                Issued 2024 August 1, 18:22 UT
     The Minor Planet Electronic Circulars contain information on unusual
         minor planets, routine data on comets and natural satellites,
         and occasional editorial announcements.  They are published
    on behalf of Division F of the International Astronomical Union by the
          Minor Planet Center, Smithsonian Astrophysical Observatory,
                          Cambridge, MA 02138, U.S.A.
			  
             Prepared using the Tamkin Foundation Computer Network
                              MPC at CFA.HARVARD.EDU
            URL https://www.minorplanetcenter.net/    ISSN 1523-6714
                                    2024 OH2                                    
Observations:
     K24O02H* C2024 07 29.36673019 31 54.838-27 54 39.04         21.57wXEP019F52
     K24O02H  C2024 07 29.37202919 31 55.374-27 54 29.42         21.55wXEP019F52
     K24O02H  C2024 07 29.37734519 31 55.922-27 54 20.17         20.85wXEP019F52
     K24O02H |C2024 07 30.16370019 33 27.950-27 30 16.50         20.7 GVEP019807
     K24O02H |C2024 07 30.16635019 33 28.200-27 30 11.80         21.1 GVEP019807
     K24O02H |C2024 07 30.16914019 33 28.490-27 30 06.70         20.9 GVEP019807
     K24O02H 3C2024 07 30.45109219 34 01.060-27 22 03.89         21.34GVEP019T14
     K24O02H 3C2024 07 30.45207219 34 01.161-27 22 02.07         21.45GVEP019T14
     K24O02H 3C2024 07 30.45305319 34 01.263-27 22 00.31         21.34GVEP019T14
     K24O02H 3C2024 08 01.30746119 37 46.002-26 25 04.36         21.39GVEP019T14
     K24O02H 3C2024 08 01.30846119 37 46.109-26 25 02.56         21.24GVEP019T14
     K24O02H 3C2024 08 01.30943719 37 46.213-26 25 00.76         21.45GVEP019T14
Observer details:
807 Cerro Tololo Observatory, La Serena.  Observers T. Linder, R. Holmes.
    0.61-m f/6.8 Ritchey-Chretien + CCD.
F52 Pan-STARRS 2, Haleakala.  Observers J. Herman, T. Lowe, P. Minguez, A.
    Schultz, I. Smith.  Measurers K. Chambers, T. de Boer, J. Fairlamb, H.
    Gao, M. Huber, C.-C. Lin, E. Magnier, Y. Ramanjooloo, R. Wainscoat, R.
    Weryk.  1.8-m Ritchey-Chretien + CCD.
T14 Canada-France-Hawaii Telescope, Maunakea.  Observers R. Wainscoat, J.
    Silva, V. Khatu.  Measurers R. Weryk, R. Wainscoat.  3.6-m f/4.1 reflector
    + CCD.
Orbital elements:
2024 OH2                                                 Earth MOID = 0.2220 AU
Epoch 2024 Oct. 17.0 TT = JDT 2460600.5                 MPC                     
M  16.69782              (2000.0)            P               Q                  
n   0.23469394     Peri.  355.27461     +0.65467503     +0.75307202             
a   2.6029638      Node   315.60125     -0.69043301     +0.56047438             
e   0.5251779      Incl.    5.36734     -0.30773831     +0.34460267             
P   4.20           H   23.37          G   0.15           U   8                  
Residuals in seconds of arc
240729 F52  0.0   0.1-    240730 807  0.0   0.0     240730 T14  0.0   0.1-
240729 F52  0.0   0.1+    240730 807  0.1+  0.1+    240801 T14  0.0   0.0
240729 F52  0.2+  0.0     240730 T14  0.0   0.1-    240801 T14  0.0   0.0
240730 807  0.3+  0.1+    240730 T14  0.0   0.1-    240801 T14  0.0   0.0
Ephemeris:
2024 OH2                 a,e,i = 2.60, 0.53, 5                   q = 1.2359
Date    TT    R. A. (2000) Decl.     Delta      r    Elong.  Phase     V
2024 07 02    18 50 03.8 -37 07 36   0.2888  1.2986   165.9    11.0    21.9
...
2024 07 17    19 10 02.8 -33 14 38   0.2477  1.2577   165.6    11.6    21.5
...
2024 07 25    19 23 39.3 -29 58 56   0.2360  1.2443   164.0    13.0    21.5
...
2024 07 31    19 35 07.3 -27 04 57   0.2321  1.2383   162.4    14.4    21.5
2024 08 01    19 37 07.4 -26 34 13   0.2318  1.2377   162.1    14.6    21.5
2024 08 02    19 39 09.0 -26 03 04   0.2317  1.2371   161.8    14.9    21.5
...
2024 08 08    19 51 45.5 -22 50 08   0.2336  1.2360   159.9    16.4    21.6
...
2024 08 16    20 09 27.2 -18 28 53   0.2430  1.2402   157.2    18.5    21.7
...
2024 08 31    20 43 10.2 -11 09 36   0.2822  1.2650   151.7    22.2    22.2
M. P. C. Staff               (C) Copyright 2024 MPC           M.P.E.C. 2024-P19
    
    
More information about the Iaude
mailing list